Regional Weather Roundup
Issued by NWS

Home | Current Version | Previous Version | Graphics & Text | Print | Product List | Glossary On
Versions: 1 2 3 4 5 6 7 8 9 10 11 12 13 14 15 16 17 18 19 20 21 22 23 24 25 26 27 28 29 30 31 32 33 34 35 36 37 38 39 40 41 42 43 44 45 46 47 48 49 50
000
ASUS43 KMKX 180611
RWRWI

WISCONSIN REGIONAL WEATHER ROUNDUP
NATIONAL WEATHER SERVICE MILWAUKEE/SULLIVAN WI
100 AM CDT WED OCT 18 2017

NOTE: "FAIR" INDICATES FEW OR NO CLOUDS BELOW 12,000 FEET WITH NO
SIGNIFICANT WEATHER AND/OR OBSTRUCTIONS TO VISIBILITY.

WIZ001-002-006>008-014>016-023>028-180700-
NORTHWEST WISCONSIN

CITY           SKY/WX    TMP DP  RH WIND       PRES   REMARKS
SUPERIOR ARPT  PTCLDY    41  39  94 W3        29.81F
6HR MIN TEMP:  40; 6HR MAX TEMP:  57;

ASHLAND        CLEAR     52  43  71 SW7       29.85F
6HR MIN TEMP:  50; 6HR MAX TEMP:  57;

HAYWARD        CLEAR     52  42  69 S8        29.89F
6HR MIN TEMP:  46; 6HR MAX TEMP:  56;

SIREN          CLEAR     58  42  54 S8        29.87F
6HR MIN TEMP:  54; 6HR MAX TEMP:  60;

CUMBERLAND     CLEAR     46  41  81 S7        29.91S
RICE LAKE      CLEAR     47  43  85 SE5       29.93S
6HR MIN TEMP:  47; 6HR MAX TEMP:  57;

CHETEK         CLEAR     51  45  80 SE5       29.92S
6HR MIN TEMP:  49; 6HR MAX TEMP:  57;

LADYSMITH      CLEAR     53  45  73 S6        29.94F
6HR MIN TEMP:  52; 6HR MAX TEMP:  60;

EAU CLAIRE     CLEAR     49  46  90 CALM      29.93S
6HR MIN TEMP:  49; 6HR MAX TEMP:  60;

MENOMONIE      CLEAR     51  44  76 S5        29.93S
6HR MIN TEMP:  50; 6HR MAX TEMP:  58;

NEW RICHMOND   CLEAR     52  42  69 S7        29.90F
OSCEOLA        CLEAR     54  44  68 S6        29.92S
6HR MIN TEMP:  50; 6HR MAX TEMP:  56;

$$

WIZ003>005-009-010-017-018-180700-
NORTH CENTRAL WISCONSIN

CITY           SKY/WX    TMP DP  RH WIND       PRES   REMARKS
MANITOWISH WTR CLEAR     49  45  88 S5        29.93S
6HR MIN TEMP:  47; 6HR MAX TEMP:  54;

ARBOR VITAE    CLEAR     52  46  79 S7        29.94S
6HR MIN TEMP:  52; 6HR MAX TEMP:  57;

WOODRUFF       CLEAR     52  46  79 S7        29.94S
6HR MIN TEMP:  52; 6HR MAX TEMP:  57;

RHINELANDER    CLEAR     54  45  71 SW7       29.97S
6HR MIN TEMP:  53; 6HR MAX TEMP:  57;

EAGLE RIVER    CLEAR     50  42  75 S5        29.95S
6HR MIN TEMP:  48; 6HR MAX TEMP:  56;

LAND O LAKES   CLEAR     49  43  80 CALM      29.95F
6HR MIN TEMP:  43; 6HR MAX TEMP:  50;

PHILLIPS       CLEAR     51  44  78 S5        29.93S
6HR MIN TEMP:  48; 6HR MAX TEMP:  55;

TOMAHAWK       CLEAR     46  42  88 CALM      29.97S
6HR MIN TEMP:  45; 6HR MAX TEMP:  52;

MEDFORD        CLEAR     53  44  70 S9        29.96F
6HR MIN TEMP:  47; 6HR MAX TEMP:  58;

MERRILL        CLEAR     53  45  74 SW6       29.98S
6HR MIN TEMP:  37; 6HR MAX TEMP:  60;

$$

WIZ029-030-035-036-043>047-180700-
CENTRAL WISCONSIN

CITY           SKY/WX    TMP DP  RH WIND       PRES   REMARKS
WAUSAU         CLEAR     52  45  77 CALM      29.97F
6HR MIN TEMP:  49; 6HR MAX TEMP:  60;

MOSINEE        CLEAR     50  45  81 S9        30.00S
MARSHFIELD     CLEAR     52  42  69 SW10      29.98F
6HR MIN TEMP:  50; 6HR MAX TEMP:  58;

STEVENS POINT  CLEAR     47  43  85 S6        30.01S
6HR MIN TEMP:  45; 6HR MAX TEMP:  57;

WAUPACA        CLEAR     52  45  75 S5        30.02S
6HR MIN TEMP:  52; 6HR MAX TEMP:  59;

WAUTOMA        CLEAR     42  41  96 CALM      30.04S
6HR MIN TEMP:  42; 6HR MAX TEMP:  57;

WISC RAPIDS    CLEAR     52  45  77 S7        30.01F
6HR MIN TEMP:  49; 6HR MAX TEMP:  59;

CAMP DOUGLAS   CLEAR     58  44  60 S10G16    30.01S
6HR MIN TEMP:  43; 6HR MAX TEMP:  59;

$$

WIZ011>013-019>022-031-037>040-048>050-180700-
NORTHEAST WISCONSIN

CITY           SKY/WX    TMP DP  RH WIND       PRES   REMARKS
ANTIGO         CLEAR     50  44  78 SW8       29.99S
6HR MIN TEMP:  48; 6HR MAX TEMP:  53;

SHAWANO        CLEAR     53  46  76 CALM      30.00S
6HR MIN TEMP:  50; 6HR MAX TEMP:  58;

OCONTO         CLEAR     54  46  75 SW6       30.00S
6HR MIN TEMP:  45; 6HR MAX TEMP:  58;

STURGEON BAY   CLEAR     57  45  64 SW13      30.01S
6HR MIN TEMP:  54; 6HR MAX TEMP:  57;

GREEN BAY      CLEAR     56  48  74 S10       30.02S
6HR MIN TEMP:  50; 6HR MAX TEMP:  58;

MANITOWOC      CLEAR     59  43  55 SW8       30.05S
6HR MIN TEMP:  50; 6HR MAX TEMP:  60;

APPLETON       CLEAR     54  41  62 SW12      30.02S
CLINTONVILLE   CLEAR     52  45  76 SW7       30.01S
OSHKOSH        CLEAR     54  43  66 SW13      30.04S
6HR MIN TEMP:  51; 6HR MAX TEMP:  59;

$$

WIZ032>034-041-042-053>061-180700-
SOUTHWEST WISCONSIN

CITY           SKY/WX    TMP DP  RH WIND       PRES   REMARKS
LA CROSSE      CLEAR     59  46  62 S10       29.99F
6HR MIN TEMP:  56; 6HR MAX TEMP:  62;

SPARTA         CLEAR     46  43  89 CALM      30.02S
6HR MIN TEMP:  46; 6HR MAX TEMP:  55;

VIROQUA        CLEAR     55  45  68 S6        30.03S
6HR MIN TEMP:  55; 6HR MAX TEMP:  63;

BOSCOBEL       CLEAR     45  43  93 CALM      30.05S
6HR MIN TEMP:  45; 6HR MAX TEMP:  65;

PRAIRIE DU CHI CLEAR     59  42  53 S5        30.03F
6HR MIN TEMP:  58; 6HR MAX TEMP:  67;

PLATTEVILLE    CLEAR     52  44  74 S6        30.07F
6HR MIN TEMP:  52; 6HR MAX TEMP:  61;

$$

WIZ056-057-062-063-064-067-068-180700-
SOUTH CENTRAL WISCONSIN

CITY           SKY/WX    TMP DP  RH WIND       PRES   REMARKS
REEDSBURG      CLEAR     53  43  67 S6        30.04F
6HR MIN TEMP:  53; 6HR MAX TEMP:  62;

BARABOO/DELLS  CLEAR     54  41  62 S9        30.05S
6HR MIN TEMP:  53; 6HR MAX TEMP:  61;

LONE ROCK      CLEAR     52  44  74 CALM      30.06S
6HR MIN TEMP:  48; 6HR MAX TEMP:  61;

MINERAL POINT  CLEAR     54  43  66 S8        30.07S
MADISON        CLEAR     55  42  61 S9        30.08S
6HR MIN TEMP:  55; 6HR MAX TEMP:  65;

MIDDLETON      CLEAR     55  42  63 SW7       30.08S
6HR MIN TEMP:  55; 6HR MAX TEMP:  64;

WATERTOWN      CLEAR     53  44  73 S7        30.09S
6HR MIN TEMP:  49; 6HR MAX TEMP:  61;

MONROE         CLEAR     50  41  71 S13       30.08F
JANESVILLE     CLEAR     52  41  66 S8        30.10S
$$

WIZ051-052-058>065-066-070>072-180700-
SOUTHEAST WISCONSIN

CITY           SKY/WX    TMP DP  RH WIND       PRES   REMARKS
MILWAUKEE      PTCLDY    57  42  57 SW12      30.11S
6HR MIN TEMP:  57; 6HR MAX TEMP:  65;

WAUKESHA       CLEAR     54  39  58 SW9       30.11S
MILWAUKEE/TIMM PTCLDY    55  37  50 SW8       30.10F
RACINE         CLEAR     52  42  69 SW8       30.13S
6HR MIN TEMP:  50; 6HR MAX TEMP:  63;

BURLINGTON     CLEAR     51  43  73 S7        30.12S
6HR MIN TEMP:  50; 6HR MAX TEMP:  57;

KENOSHA        CLEAR     52  41  66 S7        30.13R
6HR MIN TEMP:  48; 6HR MAX TEMP:  62;

FOND DU LAC    CLEAR     57  40  52 S8        30.06S
6HR MIN TEMP:  57; 6HR MAX TEMP:  61;

SHEBOYGAN      CLEAR     51  43  74 SW9       30.06S
6HR MIN TEMP:  51; 6HR MAX TEMP:  57;

WEST BEND      CLEAR     55  39  54 SW12      30.08S
JUNEAU         CLEAR     51  41  68 S6        30.09S
6HR MIN TEMP:  51; 6HR MAX TEMP:  61;

$$

LSZ147-162-180700-
LAKE SUPERIOR

STATION/POSITION TIME  TEMP    WIND        PRES    WAVE
                       AIR SEA DIR/SP/G            HT/PER
                 (UTC) (F)     (DEG/KT/KT) (MB)    (FT/S)
W MID LAKE BUOY  0550   56 53              1009.8F   1/ 3
DEVILS ISLAND    0600   60     190/ 10/ 14 1009.8F
SAXON HARBOR     0540   61     190/  8/ 14 1010.5F
$$

LMZ867-665-643>646-180700-
LAKE MICHIGAN

STATION/POSITION TIME  TEMP    WIND        PRES    WAVE
                       AIR SEA DIR/SP/G            HT/PER
                 (UTC)



USA.gov is the U.S. government's official web portal to all federal, state and local government web resources and services.